Location: Bullfrog
(37.5121°N, 110.7330°W)
Time: 13:11:48
(UTC-07:00)

Hubble Space Telescope - Pass Details

Date: 26 January 2026
Orbit: 478 x 480 km, 28.5° (Epoch: 5 February)

Event Time Altitude Azimuth Distance (km) Brightness Sun altitude
Rises 19:55:21 0° 249° (WSW) 2,511 5.3 -26.7°
Reaches altitude 10° 19:57:56 10° 232° (SW) 1,634 3.9 -27.2°
Enters shadow 19:59:25 17° 212° (SSW) 1,272 3.0 -27.5°
